Rome, OR

7:34 PM MDT on April 30, 2017 (GMT -0600)
Rome State

Weather History for KREO - January, 2013

Change the Weather History Date:

Tuesday, January 1, 2013

  Actual Average Record
Temperature  
Mean Temperature 3 °F 28 °F  
Max Temperature 18 °F 37 °F 60 °F (1997)
Min Temperature -12 °F 19 °F -13 °F (1942)
Degree Days  
Heating Degree Days 62 37  
Month to date heating degree days 62 37  
Since 1 July heating degree days 2419 2784  
Moisture  
Dew Point -4 °F    
Average Humidity 79    
Maximum Humidity 90    
Minimum Humidity 67    
Precipitation  
Precipitation 0.00 in 0.03 in 0.66 in (1997)
Month to date precipitation 0.00 0.03  
Year to date precipitation 0.00 0.03  
Sea Level Pressure  
Sea Level Pressure 30.64 in    
Wind  
Wind Speed 4 mph (SSE)    
Max Wind Speed 9 mph    
Max Gust Speed 13 mph    
T = Trace of Precipitation, MM = Missing Value Source: NWS Daily Summary

Daily Weather History Graph

Daily Weather History Graph

Search for Another Location

Airport or City:

Trip Planner

Search our weather history database for the weather conditions in past years. The results will help you decide how hot, cold, wet, or windy it might be!

Date:

Astronomy

Jan. 01, 2013 Rise Set
Actual Time 7:21 AM PST 4:29 PM PST
Civil Twilight 6:49 AM PST 5:01 PM PST
Nautical Twilight 6:14 AM PST 5:36 PM PST
Astronomical Twilight 5:39 AM PST 6:10 PM PST
Moon 9:11 PM PST 9:30 AM PST
Length of Visible Light 10h 11m
Length of Day
9h 07m
Waning Gibbous, 82% of the Moon is Illuminated
Jan 1
Waning Gibbous
Jan 4
Last Quarter
Jan 11
New
Jan 18
First Quarter
Jan 26
Full

Hourly Weather History & Observations

Time (PST) Temp. Windchill Dew Point Humidity Pressure Visibility Wind Dir Wind Speed Gust Speed Precip Events Conditions
12:52 AM -4.0 °F - -9.0 °F 79% 30.51 in - Calm Calm - N/A   Unknown
1:52 AM -5.1 °F -15.8 °F -9.0 °F 83% 30.52 in - SSE 4.6 mph - N/A   Unknown
2:52 AM -8.0 °F - -9.9 °F 91% 30.56 in - Calm Calm - N/A   Unknown
3:52 AM -8.0 °F -16.9 °F -11.9 °F 83% 30.58 in - SSW 3.5 mph - N/A   Unknown
4:52 AM -8.0 °F - -11.9 °F 83% 30.58 in - Calm Calm - N/A   Unknown
5:52 AM -2.0 °F - -6.0 °F 83% 30.60 in - Calm Calm - N/A   Unknown
6:52 AM -7.1 °F - -9.0 °F 91% 30.64 in - Calm Calm - N/A   Unknown
7:52 AM -7.1 °F -18.1 °F -11.9 °F 79% 30.67 in - SSE 4.6 mph - N/A   Unknown
8:52 AM 1.0 °F -11.7 °F -4.0 °F 79% 30.66 in - South 6.9 mph - N/A   Unknown
9:52 AM 8.1 °F 1.4 °F 5.0 °F 87% 30.67 in - SSW 3.5 mph - N/A   Unknown
10:52 AM 6.1 °F -6.8 °F -0.0 °F 76% 30.67 in - ENE 8.1 mph - N/A   Unknown
11:52 AM 12.0 °F 0.5 °F 6.1 °F 77% 30.62 in - South 8.1 mph - N/A   Unknown
12:52 PM 16.0 °F - 7.0 °F 68% 30.63 in - Calm Calm - N/A   Unknown
1:52 PM 16.0 °F 8.8 °F 7.0 °F 68% 30.63 in - ENE 4.6 mph - N/A   Unknown
2:52 PM 16.0 °F 10.4 °F 8.1 °F 71% 30.63 in - SSE 3.5 mph - N/A   Unknown
3:52 PM 15.1 °F 6.4 °F 7.0 °F 70% 30.64 in - East 5.8 mph - N/A   Unknown
4:52 PM 3.9 °F -8.2 °F -0.9 °F 80% 30.68 in - ENE 6.9 mph - N/A   Unknown
5:52 PM -2.0 °F -10.1 °F -6.0 °F 83% 30.69 in - West 3.5 mph - N/A   Unknown
6:52 PM 1.9 °F - -2.0 °F 83% 30.71 in - Calm Calm - N/A   Unknown
7:52 PM -7.1 °F -18.1 °F -11.0 °F 83% 30.74 in - South 4.6 mph - N/A   Unknown
8:52 PM -2.9 °F -11.2 °F -8.0 °F 79% 30.71 in - South 3.5 mph - N/A   Unknown
9:52 PM -4.0 °F -16.3 °F -8.0 °F 83% 30.68 in - South 5.8 mph - N/A   Unknown
10:52 PM -2.0 °F -13.9 °F -6.0 °F 83% 30.67 in - SSE 5.8 mph - N/A   Unknown
11:52 PM -2.9 °F - -6.0 °F 87% 30.66 in - Calm Calm - N/A   Unknown